User: anonymous   Login
Location: Unspecified
(0.0000°N, 0.0000°E)
Time: 10:32:20
(UTC+02:00)
Language:

YAOGAN 1 - Orbit

View from above orbital plane
View from above orbital plane
View from above satellite
View from above satellite

Ground track
Ground track

The orbit data is extracted from the following two-line orbital elements,

1 29092U 06015A   16270.54213521  .00000193  00000-0  30615-4 0  9995
2 29092  98.0069 275.6208 0001379  89.1177 271.0194 14.82710623563292
Epoch (UTC): 26 September 2016 13:00:40
Eccentricity: 0.0001379
inclination: 98.0069°
perigee height: 620 km
apogee height: 622 km
right ascension of ascending node: 275.6208°
argument of perigee: 89.1177°
revolutions per day: 14.82710623
mean anomaly at epoch: 271.0194°
orbit number at epoch: 56329

The dashed part of the orbit path shows where the satellite is in the earth's shadow,  

DLR